Torna al catalogo

STARLINK-36913

AttivoComunicazioniSSO
NORAD 68031·PAYLOAD·🇺🇸 United States

Lanciato Mar 1, 2026 da Vandenberg Space Force Base

Loading…

Prossimi Passaggi (prossime 24 ore)

TLE

AggiornatoSource: CelesTrak SupGP

Epoca: Sep 15, 2026, 04:21 UTC

1 68031C 26040S   26258.18173611  .00085228  00000+0  26461-2 0  2584
2 68031  97.2852 205.6020 0001917 100.3706 252.6319 15.33390578    16

Traccia STARLINK-36913 in tempo reale con AllMySat

Download on the App Store